Volver al catálogo

MOLNIYA 3-47

ActivoComunicacionesHEO
NORAD 23642·PAYLOAD·🇷🇺 Russia

Lanzado Aug 9, 1995 desde Plesetsk Cosmodrome

Loading…

Próximos Pases (próximas 24 horas)

TLE

ActualizadoSource: Space-Track

Época: Sep 13, 2026, 03:54 UTC

1 23642U 95042A   26256.16299845  .00000993  00000-0  00000+0 0  9992
2 23642  64.8418 260.0270 6652882 268.2735  20.5236  2.01961329228291

Sigue MOLNIYA 3-47 en tiempo real con AllMySat

Download on the App Store